sat.trackr.live / text

‹ back to catalog

STARLINK-4387

NORAD 53490 · 2022-099AB

PAYLOAD ACTIVE UNKNOWN

§ Identity

Operator
Country
US
Launch date
2022-08-12
Launch site
AFWTR
Launch vehicle
Mass (kg)
RCS (m²)

Purposes: comms

External: N2YO · Heavens-Above · Gunter

§ Orbital elements

Epoch: 2026-05-24T21:46:07.187232Z

Period
94.14 min
Inclination
97.6036°
Eccentricity
0.0001523
Mean motion
15.29675443 rev/d
Perigee alt
475.7 km
Apogee alt
477.8 km
Semi-major
6,854.9 km
B*
3.4662e-4
RAAN
267.6757°
Arg perigee
68.8750°
Mean anomaly
291.2653°
Rev number
20,759

§ Raw data

STARLINK-43871 53490U 22099AB  26144.90702763  .00009890  00000+0  34662-3 0  99932 53490  97.6036 267.6757 0001523  68.8750 291.2653 15.29675443207596

JSON: /api/v1/satellites/53490 · /tle

For live sub-satellite position, see the globe view (requires WebGL).

§ Visibility from observer

Set your observer location to see the next 7 days of passes ≥ 10°. The values pass through the URL so the page stays shareable.

No JS? Fill the form by hand. The geolocation button needs JavaScript.